Regional Weather Roundup
Issued by NWS

Home | Current Version | Previous Version | Text Only | Print | Product List | Glossary On
Versions: 1 2 3 4 5 6 7 8 9 10 11 12 13 14 15 16 17 18 19 20 21 22 23 24 25 26 27 28 29 30 31 32 33 34 35 36 37 38 39 40 41 42 43 44 45 46 47 48 49 50
140
ASUS46 KSTO 192015
RWRCA

NORTHERN AND CENTRAL CA REGIONAL WEATHER ROUNDUP
NATIONAL WEATHER SERVICE SACRAMENTO CA
1200 PM PST SUN NOV 19 2017

NOTE: FAIR INDICATES FEW OR NO CLOUDS BELOW 12,000 FEET WITH NO
SIGNIFICANT WEATHER AND/OR OBSTRUCTIONS TO VISIBILITY.

CAZ001-003-192100-
NORTHWEST AREA

CITY           SKY/WX    TMP DP  RH WIND       PRES   REMARKS
CRESCENT CITY  PTSUNNY   51  41  68 S12       30.08F
UKIAH          PTSUNNY   52  34  50 CALM      30.13F
$$

CAZ006-505>513-192100-
BAY AREA

CITY           SKY/WX    TMP DP  RH WIND       PRES   REMARKS
SANTA ROSA     PTSUNNY   57  39  51 CALM      30.12F
SAN RAFAEL     N/A       56  MM  MM MISG
NAPA           MOSUNNY   58  40  51 SW7       30.13F
CONCORD        MOSUNNY   60  39  45 N5        30.14F
OAKLAND CITY   N/A      MM  MM  MM MISG
OAKLAND        PTSUNNY   55  47  74 W5        30.13F
SAN FRAN CITY  N/A       58  MM  61 MISG
SAN FRAN ARPT  PTSUNNY   57  47  69 NE7       30.12F
LIVERMORE      SUNNY     59  45  59 CALM      30.11F
HAYWARD        SUNNY     58  42  55 NW3       30.12F
REDWOOD CITY   N/A       58  MM  59 MISG
MOFFETT ARPT   SUNNY     59  45  59 N7        30.12F
SAN JOSE ARPT  PTSUNNY   61  43  51 CALM      30.12F
$$
CAZ034-037-514>518-192100-
CENTRAL COAST

CITY           SKY/WX    TMP DP  RH WIND       PRES   REMARKS
WATSONVILLE    SUNNY     62  44  51 CALM      30.11F
SALINAS        SUNNY     63  42  46 NE5       30.10F
MONTEREY       SUNNY     61  44  53 W6        30.11F
SAN LUIS OBISP MOSUNNY   67  41  38 W6        30.06F
SANTA MARIA    PTSUNNY   63  39  41 VRB5      30.07F
$$
CAZ015-016-192100-
NORTHERN SACRAMENTO VALLEY

CITY           SKY/WX    TMP DP  RH WIND       PRES   REMARKS
REDDING        PTSUNNY   54  40  59 CALM      30.14F
RED BLUFF      CLOUDY    54  40  59 N7        30.15F
OROVILLE       PTSUNNY   55  45  68 VRB3      30.14F
$$
CAZ016>018-192100-
SOUTHERN SACRAMENTO VALLEY

CITY           SKY/WX    TMP DP  RH WIND       PRES   REMARKS
AUBURN         MOSUNNY   57  43  58 W3        30.13F
BEALE AFB      SUNNY     58  43  57 NW3       30.12F
LINCOLN        FAIR      59  43  55 CALM      30.13F
MARYSVILLE     MOSUNNY   59  44  57 CALM      30.14F
SAC INTL ARPT  PTSUNNY   55  44  66 W5        30.14F
MATHER AIRPORT PTSUNNY   57  46  67 NW3       30.14F
DOWNTOWN SAC   N/A       59  MM  MM MISG
SAC EXEC ARPT  SUNNY     58  44  60 VRB5      30.14F
VACAVILLE      SUNNY     62  36  37 N8        30.15F
TRAVIS AFB     MOSUNNY   59  37  43 NE9       30.12F
$$
CAZ019>021-192100-
SAN JOAQUIN VALLEY

CITY           SKY/WX    TMP DP  RH WIND       PRES   REMARKS
STOCKTON       SUNNY     59  47  64 NW3       30.13F
MODESTO        SUNNY     60  45  57 CALM      30.12F
MERCED         MOSUNNY   58  46  64 NW3       30.12F
LEMOORE        CLOUDY    67  44  43 CALM      30.12F HAZE
FRESNO         MOSUNNY   59  47  64 CALM      30.12F HAZE
HANFORD        MOSUNNY   58  47  66 CALM      30.13F HAZE
PORTERVILLE    SUNNY     61  47  59 N5        30.12F
BAKERSFIELD    MOSUNNY   63  46  54 NW5       30.08F
$$
CAZ011-012-071-192100-
NORTHERN MOUNTAINS

CITY           SKY/WX    TMP DP  RH WIND       PRES   REMARKS
YREKA          CLOUDY    34  29  82 CALM      30.11F
MOUNT SHASTA   CLOUDY    49  33  54 SE6       30.11F
ALTURAS        CLOUDY    39  31  72 W3        30.10F
$$
CAZ011-012-071-192100-
SIERRA NEVADA MTNS

CITY           SKY/WX    TMP DP  RH WIND       PRES   REMARKS
BLUE CANYON    MOSUNNY   50  19  29 S9        30.17F
TAHOE VLY ARPT MOSUNNY   47  32  56 NE8       30.16F
MAMMOTH LAKES  FAIR      55  16  21 SE7       30.19F
$$




USA.gov is the U.S. government's official web portal to all federal, state and local government web resources and services.